默认 日期 大小 文件数 浏览量 最新下载 xml
du-du磁力链接相关资源由用户搜索指令自动获取,结果来源于网络,本站不存储任何资料,亦不承担任何责任,请于24小时内删除,搜索到13633个磁力,显示前4000条数据,用时10ms。
    {"Le Secret Du Chevalier D'Eon 1959.avi": 892070332, "Le Secret Du Chevalier D'Eon 1959.srt": 142928}
创建时间: 2018-11-30 03:41:25 大小:850.88 MB 文件数量:2 热度:17 最近下载:2025-06-16 00:37:01
    {"INFO.txt": 2533, "rd_login.jpg": 79357, "duze dzieci 1-2.jpg": 201820, "Duże Dzieci-2010.avi": 734892032, "Jeszcze Większe Dzieci-2013.avi": 2206843570, "ZAPRASZAM myca1125 -DEVIL-TORRENTS.PL..html": 576}
创建时间: 2018-11-30 05:16:16 大小:2.74 GB 文件数量:6 热度:16 最近下载:2025-03-29 23:42:02
    {"Les.reines.du.ring.txt": 71, "Les.reines.du.ring.DVDRip[Xvid]AC3.6ch[Eng]BlueLady.wmv": 720320740}
创建时间: 2018-11-30 05:22:01 大小:686.95 MB 文件数量:2 热度:10 最近下载:2025-03-29 23:43:01
    {"momknowsbest.17.12.08.missy.martinez.and.sofi.ryan.chef.du.jour.mp4": 595401157}
创建时间: 2018-11-30 05:22:51 大小:567.82 MB 文件数量:1 热度:21 最近下载:2025-04-29 16:38:03
    {"Le secret des saveurs du Japon HD (Arte 14.08.2014) - OHSimonO.mp4": 652055059, "Le secret des saveurs du Japon HD (Arte 14.08.2014) - OHSimonO.txt": 3269}
创建时间: 2018-11-30 05:32:28 大小:621.85 MB 文件数量:2 热度:15 最近下载:2025-03-29 23:42:03
    ... urgence !.mp3": 9053227, "16-Fille du vent.mp3": 9425935, "02-Esprits ... ": 12890985, "17-Tout tourne autour du Soleil.mp3": 9501118, "01-Intro ... - Tout tourne autour du Soleil.mp3": 8524985, "05-Entre ...
创建时间: 2018-11-30 05:37:24 大小:175.21 MB 文件数量:20 热度:7 最近下载:2025-03-29 23:43:02
    {"face.jpg": 73642, "01_Loin_63.mp3": 7242395, "31_Loin_63.mp3": 7281066, "14_Mon ami_67.mp3": 5183934, "04_Avec toi_63.mp3": 6660375, "30_La plage_64.mp3": 7022957, "19_Mon copain_62.mp3": 5962392, "15_L'amour en cage_63.mp3": 4540287, "21_L'été ...
创建时间: 2018-11-30 05:38:56 大小:181.06 MB 文件数量:32 热度:12 最近下载:2025-09-13 22:38:04
    {"Beardfsh - Fran en Plats du ej Kan Se.ape": 499389372, "Beardfsh - Fran en Plats du ej Kan Se.cue": 1457, "Beardfsh - Fran en Plats du ej Kan Se.log": 2436}
创建时间: 2018-11-30 06:59:14 大小:476.26 MB 文件数量:3 热度:13 最近下载:2025-03-29 23:43:01
    ... Allegro.flac": 42127695, "01 - Jacqueline du Pre, Daniel Barenboim - Beethoven - Cello ... Sostenuto.flac": 13982128, "07 - Jacqueline du Pre, Daniel Barenboim - Beethoven - ... Espressivo.flac": 25346421, "05 - Jacqueline du Pre, Daniel Barenboim - Beethoven - ...
创建时间: 2018-11-30 10:06:42 大小:298.33 MB 文件数量:17 热度:11 最近下载:2025-08-09 20:55:01
    {"s1e01 - The Scarab Lives!.avi": 274350080, "s1e06 - The Scary Sky Skeleton.avi": 274169856, "s1e13 - Rocky Mountain Yiiiii!.avi": 274026496, "s1e07 - The Demon of the Dugout.avi": 273715200, "s1e14 - The Sorcerer's a Menace.avi": 273795072, "s1e16 - The ...
创建时间: 2018-11-30 14:09:43 大小:4.09 GB 文件数量:16 热度:8 最近下载:2025-03-29 23:41:03
    {"KinoKopilka.tv - Best Movies BitTorrent Network.url": 154, "Cirque du Soleil - Worlds Away (www.kinokopilka.tv).jpg": 82320, "Cirque du Soleil - Worlds Away [BDRip-720p] (www.kinokopilka.tv).mkv": 4423153742}
创建时间: 2018-11-30 14:16:09 大小:4.12 GB 文件数量:3 热度:10 最近下载:2025-03-29 23:41:03
    {"MA_FEMME_VEUT_FAIRE_DU_X.mp4": 1036797456, "2479-ma-femme-veut-faire-du-x.jpg": 136161, "2480-ma-femme-veut-faire-du-x.jpg": 138253, "MA_FEMME_VEUT_FAIRE_DU_X.mp4_thumbs_[2018.09.28_12.06.41].jpg": 1152114}
创建时间: 2018-11-30 14:32:41 大小:990.13 MB 文件数量:4 热度:32 最近下载:2025-08-13 06:57:02
    {"Lancelot du Lac.avi": 1191325696, "Lancelot du Lac.eng.srt": 43697, "Lancelot du Lac.ptb.srt": 37931}
创建时间: 2018-11-30 15:40:59 大小:1.11 GB 文件数量:3 热度:15 最近下载:2025-03-29 23:42:03
    {"VIDEO_TS": {"VIDEO_TS.BUP": 6144, "VIDEO_TS.IFO": 6144, "VTS_01_0.BUP": 59392, "VTS_01_0.IFO": 59392, "VTS_01_1.VOB": 1073739776, "VTS_01_2.VOB": 1073739776, "VTS_01_3.VOB": 1073739776, "VTS_01_4.VOB": 1073739776, "VTS_01_5.VOB": 133507072}, "VIDEO_TS. ...
创建时间: 2018-11-30 15:48:15 大小:4.12 GB 文件数量:10 热度:11 最近下载:2025-03-29 23:43:03
    {"Readme!!.txt": 100, "DU Meter 7.26 Build 4769 + patch.exe": 3882914, "DU Meter 7.26 Build 4769 + patch.nfo": 976, "Torrent downloaded from extremlymtorrents.me.txt": 76}
创建时间: 2018-11-30 16:31:12 大小:3.7 MB 文件数量:4 热度:25 最近下载:2025-08-03 03:09:02
    {"03 Jean-Pierre Bourtayre - End Theme (Remix).mp3": 3661051, "01 Jean-Pierre Bourtayre - End Theme (from “Les Maitres Du Temps” OST).mp3": 9506885, "02 Jean-Pierre Bourtayre - Swimming Scene (from “Les Maitres Du Temps” OST).mp3": 2043329}
创建时间: 2018-11-30 16:35:41 大小:14.51 MB 文件数量:3 热度:7 最近下载:2025-03-29 23:42:02
    {"INFO.TXT": 944, "CHEOPS.NFO": 1423, "CHEOPS.TXT": 2635, "Daphne du Maurier - The Years Between.mp3": 85642055, "torrent downloaded from radioarchive.cx.txt": 39}
创建时间: 2018-11-30 17:02:10 大小:81.68 MB 文件数量:5 热度:11 最近下载:2025-03-29 23:42:02
    ... 5, qui renferme le chant du Kyrie.flac": 17169577, "15 - ... "Nicolas de Grigny - Messe extraite du Livre d'Orgue.cue": 4715 ... "Nicolas de Grigny - Messe extraite du Livre d'Orgue.log": 19998 ... "Nicolas de Grigny - Messe extraite du Livre d'Orgue.txt": 2474 ...
创建时间: 2018-11-30 17:19:48 大小:371.01 MB 文件数量:38 热度:9 最近下载:2025-03-29 23:43:02
    ... .mp3": 9396725, "Jole - Boliš Me Dušo.mp3": 8020621, "Mate Bulic ... - Svirajte Noćas Za Moju Dušu.mp3": 8089614, "Đorđe ...
创建时间: 2018-11-30 17:27:23 大小:329.12 MB 文件数量:41 热度:10 最近下载:2025-08-06 17:27:02
    {"Du Bist Der Regisseur #6 СD2.avi": 733304832, "Du Bist Der Regissеur #6 CD1.avi": 732925952, "Du Bist Der RegissЕur #6 СD3.avi": 730810368}
创建时间: 2018-11-30 18:36:27 大小:2.05 GB 文件数量:3 热度:8 最近下载:2025-03-29 23:42:02